Year,Month,Day,Hour,Minute,Value (Times are PST for temperature in C)
2009,05,25,00,00,11.80
2009,05,25,00,01,11.80
2009,05,25,00,02,11.80
2009,05,25,00,03,11.80
2009,05,25,00,04,11.80
2009,05,25,00,05,11.80
2009,05,25,00,06,11.80
2009,05,25,00,07,11.80
2009,05,25,00,08,11.80
2009,05,25,00,09,11.70
2009,05,25,00,10,11.70
2009,05,25,00,11,11.70
2009,05,25,00,12,11.70
2009,05,25,00,13,11.70
2009,05,25,00,14,11.60
2009,05,25,00,15,11.60
2009,05,25,00,16,11.60
2009,05,25,00,17,11.60
2009,05,25,00,18,11.60
2009,05,25,00,19,11.60
2009,05,25,00,20,11.60
2009,05,25,00,21,11.60
2009,05,25,00,22,11.60
2009,05,25,00,23,11.50
2009,05,25,00,24,11.50
2009,05,25,00,25,11.50
2009,05,25,00,26,11.40
2009,05,25,00,27,11.40
2009,05,25,00,28,11.40
2009,05,25,00,29,11.40
2009,05,25,00,30,11.40
2009,05,25,00,31,11.40
2009,05,25,00,32,11.40
2009,05,25,00,33,11.30
2009,05,25,00,34,11.30
2009,05,25,00,35,11.30
2009,05,25,00,36,11.30
2009,05,25,00,37,11.20
2009,05,25,00,38,11.20
2009,05,25,00,39,11.20
2009,05,25,00,40,11.20
2009,05,25,00,41,11.20
2009,05,25,00,42,11.20
2009,05,25,00,43,11.20
2009,05,25,00,44,11.10
2009,05,25,00,45,11.10
2009,05,25,00,46,11.10
2009,05,25,00,47,11.10
2009,05,25,00,48,11.10
2009,05,25,00,49,11.10
2009,05,25,00,50,11.10
2009,05,25,00,51,11.10
2009,05,25,00,52,11.10
2009,05,25,00,53,11.10
2009,05,25,00,54,11.10
2009,05,25,00,55,11.10
2009,05,25,00,56,11.10
2009,05,25,00,57,11.10
2009,05,25,00,58,11.10
2009,05,25,00,59,11.10
2009,05,25,01,00,11.10
2009,05,25,01,01,11.10
2009,05,25,01,02,11.10
2009,05,25,01,03,11.10
2009,05,25,01,04,11.10
2009,05,25,01,05,11.10
2009,05,25,01,06,11.00
2009,05,25,01,07,11.00
2009,05,25,01,08,11.00
2009,05,25,01,09,11.00
2009,05,25,01,10,10.90
2009,05,25,01,11,10.90
2009,05,25,01,12,10.90
2009,05,25,01,13,10.90
2009,05,25,01,14,10.90
2009,05,25,01,15,10.90
2009,05,25,01,16,10.80
2009,05,25,01,17,10.80
2009,05,25,01,18,10.80
2009,05,25,01,19,10.80
2009,05,25,01,20,10.70
2009,05,25,01,21,10.70
2009,05,25,01,22,10.70
2009,05,25,01,23,10.60
2009,05,25,01,24,10.60
2009,05,25,01,25,10.50
2009,05,25,01,26,10.40
2009,05,25,01,27,10.40
2009,05,25,01,28,10.40
2009,05,25,01,29,10.30
2009,05,25,01,30,10.30
2009,05,25,01,31,10.30
2009,05,25,01,32,10.30
2009,05,25,01,33,10.30
2009,05,25,01,34,10.30
2009,05,25,01,35,10.30
2009,05,25,01,36,10.30
2009,05,25,01,37,10.40
2009,05,25,01,38,10.40
2009,05,25,01,39,10.40
2009,05,25,01,40,10.40
2009,05,25,01,41,10.40
2009,05,25,01,42,10.40
2009,05,25,01,43,10.30
2009,05,25,01,44,10.30
2009,05,25,01,45,10.40
2009,05,25,01,46,10.40
2009,05,25,01,47,10.40
2009,05,25,01,48,10.40
2009,05,25,01,49,10.40
2009,05,25,01,50,10.40
2009,05,25,01,51,10.40
2009,05,25,01,52,10.40
2009,05,25,01,53,10.30
2009,05,25,01,54,10.30
2009,05,25,01,55,10.30
2009,05,25,01,56,10.20
2009,05,25,01,57,10.20
2009,05,25,01,58,10.20
2009,05,25,01,59,10.20
2009,05,25,02,00,10.10
2009,05,25,02,01,10.10
2009,05,25,02,02,10.10
2009,05,25,02,03,10.10
2009,05,25,02,04,10.00
2009,05,25,02,05,10.00
2009,05,25,02,06,10.00
2009,05,25,02,07,10.00
2009,05,25,02,08,10.00
2009,05,25,02,09,10.00
2009,05,25,02,10,10.00
2009,05,25,02,11,10.00
2009,05,25,02,12,10.00
2009,05,25,02,13,10.00
2009,05,25,02,14,10.00
2009,05,25,02,15,10.00
2009,05,25,02,16,10.00
2009,05,25,02,17,10.00
2009,05,25,02,18,10.00
2009,05,25,02,19,9.90
2009,05,25,02,20,9.90
2009,05,25,02,21,9.90
2009,05,25,02,22,9.80
2009,05,25,02,23,9.80
2009,05,25,02,24,9.80
2009,05,25,02,25,9.80
2009,05,25,02,26,9.80
2009,05,25,02,27,9.80
2009,05,25,02,28,9.80
2009,05,25,02,29,9.80
2009,05,25,02,30,9.70
2009,05,25,02,31,9.70
2009,05,25,02,32,9.70
2009,05,25,02,33,9.70
2009,05,25,02,34,9.70
2009,05,25,02,35,9.70
2009,05,25,02,36,9.70
2009,05,25,02,37,9.70
2009,05,25,02,38,9.60
2009,05,25,02,39,9.60
2009,05,25,02,40,9.60
2009,05,25,02,41,9.60
2009,05,25,02,42,9.60
2009,05,25,02,43,9.60
2009,05,25,02,44,9.60
2009,05,25,02,45,9.60
2009,05,25,02,46,9.60
2009,05,25,02,47,9.70
2009,05,25,02,48,9.70
2009,05,25,02,49,9.70
2009,05,25,02,50,9.80
2009,05,25,02,51,9.80
2009,05,25,02,52,9.80
2009,05,25,02,53,9.90
2009,05,25,02,54,9.90
2009,05,25,02,55,9.90
2009,05,25,02,56,9.90
2009,05,25,02,57,9.90
2009,05,25,02,58,9.90
2009,05,25,02,59,9.90
2009,05,25,03,00,9.90
2009,05,25,03,01,9.90
2009,05,25,03,02,9.90
2009,05,25,03,03,9.90
2009,05,25,03,04,9.90
2009,05,25,03,05,9.90
2009,05,25,03,06,9.90
2009,05,25,03,07,9.90
2009,05,25,03,08,9.90
2009,05,25,03,09,9.90
2009,05,25,03,10,9.80
2009,05,25,03,11,9.80
2009,05,25,03,12,9.80
2009,05,25,03,13,9.80
2009,05,25,03,14,9.70
2009,05,25,03,15,9.70
2009,05,25,03,16,9.70
2009,05,25,03,17,9.60
2009,05,25,03,18,9.60
2009,05,25,03,19,9.60
2009,05,25,03,20,9.60
2009,05,25,03,21,9.50
2009,05,25,03,22,9.50
2009,05,25,03,23,9.40
2009,05,25,03,24,9.40
2009,05,25,03,25,9.40
2009,05,25,03,26,9.30
2009,05,25,03,27,9.30
2009,05,25,03,28,9.30
2009,05,25,03,29,9.20
2009,05,25,03,30,9.20
2009,05,25,03,31,9.10
2009,05,25,03,32,9.10
2009,05,25,03,33,9.00
2009,05,25,03,34,9.00
2009,05,25,03,35,8.90
2009,05,25,03,36,8.90
2009,05,25,03,37,8.90
2009,05,25,03,38,8.90
2009,05,25,03,39,8.80
2009,05,25,03,40,8.80
2009,05,25,03,41,8.80
2009,05,25,03,42,8.80
2009,05,25,03,43,8.80
2009,05,25,03,44,8.80
2009,05,25,03,45,8.80
2009,05,25,03,46,8.80
2009,05,25,03,47,8.80
2009,05,25,03,48,8.80
2009,05,25,03,49,8.90
2009,05,25,03,50,8.90
2009,05,25,03,51,8.90
2009,05,25,03,52,8.90
2009,05,25,03,53,8.90
2009,05,25,03,54,8.90
2009,05,25,03,55,8.90
2009,05,25,03,56,8.90
2009,05,25,03,57,8.90
2009,05,25,03,58,8.90
2009,05,25,03,59,8.90
2009,05,25,04,00,8.90
2009,05,25,04,01,8.90
2009,05,25,04,02,8.90
2009,05,25,04,03,8.90
2009,05,25,04,04,8.90
2009,05,25,04,05,8.90
2009,05,25,04,06,8.90
2009,05,25,04,07,8.80
2009,05,25,04,08,8.80
2009,05,25,04,09,8.80
2009,05,25,04,10,8.80
2009,05,25,04,11,8.80
2009,05,25,04,12,8.80
2009,05,25,04,13,8.80
2009,05,25,04,14,8.70
2009,05,25,04,15,8.70
2009,05,25,04,16,8.70
2009,05,25,04,17,8.60
2009,05,25,04,18,8.60
2009,05,25,04,19,8.60
2009,05,25,04,20,8.50
2009,05,25,04,21,8.50
2009,05,25,04,22,8.50
2009,05,25,04,23,8.50
2009,05,25,04,24,8.50
2009,05,25,04,25,8.50
2009,05,25,04,26,8.50
2009,05,25,04,27,8.60
2009,05,25,04,28,8.60
2009,05,25,04,29,8.60
2009,05,25,04,30,8.60
2009,05,25,04,31,8.60
2009,05,25,04,32,8.60
2009,05,25,04,33,8.60
2009,05,25,04,34,8.60
2009,05,25,04,35,8.50
2009,05,25,04,36,8.50
2009,05,25,04,37,8.50
2009,05,25,04,38,8.50
2009,05,25,04,39,8.50
2009,05,25,04,40,8.50
2009,05,25,04,41,8.50
2009,05,25,04,42,8.50
2009,05,25,04,43,8.50
2009,05,25,04,44,8.50
2009,05,25,04,45,8.50
2009,05,25,04,46,8.50
2009,05,25,04,47,8.50
2009,05,25,04,48,8.50
2009,05,25,04,49,8.50
2009,05,25,04,50,8.40
2009,05,25,04,51,8.40
2009,05,25,04,52,8.40
2009,05,25,04,53,8.40
2009,05,25,04,54,8.40
2009,05,25,04,55,8.40
2009,05,25,04,56,8.40
2009,05,25,04,57,8.30
2009,05,25,04,58,8.30
2009,05,25,04,59,8.30
2009,05,25,05,00,8.30
2009,05,25,05,01,8.30
2009,05,25,05,02,8.30
2009,05,25,05,03,8.20
2009,05,25,05,04,8.20
2009,05,25,05,05,8.20
2009,05,25,05,06,8.20
2009,05,25,05,07,8.20
2009,05,25,05,08,8.10
2009,05,25,05,09,8.10
2009,05,25,05,10,8.10
2009,05,25,05,11,8.10
2009,05,25,05,12,8.10
2009,05,25,05,13,8.10
2009,05,25,05,14,8.10
2009,05,25,05,15,8.10
2009,05,25,05,16,8.10
2009,05,25,05,17,8.10
2009,05,25,05,18,8.10
2009,05,25,05,19,8.10
2009,05,25,05,20,8.10
2009,05,25,05,21,8.10
2009,05,25,05,22,8.10
2009,05,25,05,23,8.10
2009,05,25,05,24,8.20
2009,05,25,05,25,8.20
2009,05,25,05,26,8.20
2009,05,25,05,27,8.10
2009,05,25,05,28,8.10
2009,05,25,05,29,8.10
2009,05,25,05,30,8.10
2009,05,25,05,31,8.10
2009,05,25,05,32,8.10
2009,05,25,05,33,8.10
2009,05,25,05,34,8.10
2009,05,25,05,35,8.10
2009,05,25,05,36,8.10
2009,05,25,05,37,8.10
2009,05,25,05,38,8.10
2009,05,25,05,39,8.10
2009,05,25,05,40,8.10
2009,05,25,05,41,8.20
2009,05,25,05,42,8.20
2009,05,25,05,43,8.20
2009,05,25,05,44,8.20
2009,05,25,05,45,8.20
2009,05,25,05,46,8.20
2009,05,25,05,47,8.20
2009,05,25,05,48,8.20
2009,05,25,05,49,8.20
2009,05,25,05,50,8.20
2009,05,25,05,51,8.20
2009,05,25,05,52,8.30
2009,05,25,05,53,8.30
2009,05,25,05,54,8.30
2009,05,25,05,55,8.30
2009,05,25,05,56,8.40
2009,05,25,05,57,8.40
2009,05,25,05,58,8.40
2009,05,25,05,59,8.40
2009,05,25,06,00,8.40
2009,05,25,06,01,8.40
2009,05,25,06,02,8.50
2009,05,25,06,03,8.50
2009,05,25,06,04,8.50
2009,05,25,06,05,8.60
2009,05,25,06,06,8.60
2009,05,25,06,07,8.60
2009,05,25,06,08,8.60
2009,05,25,06,09,8.60
2009,05,25,06,10,8.70
2009,05,25,06,11,8.70
2009,05,25,06,12,8.70
2009,05,25,06,13,8.70
2009,05,25,06,14,8.70
2009,05,25,06,15,8.70
2009,05,25,06,16,8.80
2009,05,25,06,17,8.80
2009,05,25,06,18,8.90
2009,05,25,06,19,8.90
2009,05,25,06,20,8.90
2009,05,25,06,21,9.00
2009,05,25,06,22,9.00
2009,05,25,06,23,9.00
2009,05,25,06,24,9.10
2009,05,25,06,25,9.10
2009,05,25,06,26,9.20
2009,05,25,06,27,9.20
2009,05,25,06,28,9.30
2009,05,25,06,29,9.30
2009,05,25,06,30,9.40
2009,05,25,06,31,9.40
2009,05,25,06,32,9.50
2009,05,25,06,33,9.50
2009,05,25,06,34,9.60
2009,05,25,06,35,9.60
2009,05,25,06,36,9.60
2009,05,25,06,37,9.70
2009,05,25,06,38,9.70
2009,05,25,06,39,9.70
2009,05,25,06,40,9.80
2009,05,25,06,41,9.80
2009,05,25,06,42,9.90
2009,05,25,06,43,9.90
2009,05,25,06,44,10.00
2009,05,25,06,45,10.10
2009,05,25,06,46,10.20
2009,05,25,06,47,10.30
2009,05,25,06,48,10.50
2009,05,25,06,49,10.60
2009,05,25,06,50,10.70
2009,05,25,06,51,10.80
2009,05,25,06,52,10.80
2009,05,25,06,53,10.80
2009,05,25,06,54,10.80
2009,05,25,06,55,10.80
2009,05,25,06,56,10.80
2009,05,25,06,57,10.90
2009,05,25,06,58,10.90
2009,05,25,06,59,10.90
2009,05,25,07,00,10.90
2009,05,25,07,01,10.90
2009,05,25,07,02,10.90
2009,05,25,07,03,11.00
2009,05,25,07,04,11.00
2009,05,25,07,05,11.00
2009,05,25,07,06,11.10
2009,05,25,07,07,11.10
2009,05,25,07,08,11.10
2009,05,25,07,09,11.20
2009,05,25,07,10,11.20
2009,05,25,07,11,11.30
2009,05,25,07,12,11.30
2009,05,25,07,13,11.40
2009,05,25,07,14,11.40
2009,05,25,07,15,11.40
2009,05,25,07,16,11.50
2009,05,25,07,17,11.50
2009,05,25,07,18,11.60
2009,05,25,07,19,11.60
2009,05,25,07,20,11.60
2009,05,25,07,21,11.60
2009,05,25,07,22,11.70
2009,05,25,07,23,11.70
2009,05,25,07,24,11.80
2009,05,25,07,25,11.80
2009,05,25,07,26,11.90
2009,05,25,07,27,11.90
2009,05,25,07,28,12.00
2009,05,25,07,29,12.00
2009,05,25,07,30,12.10
2009,05,25,07,31,12.20
2009,05,25,07,32,12.20
2009,05,25,07,33,12.30
2009,05,25,07,34,12.30
2009,05,25,07,35,12.40
2009,05,25,07,36,12.50
2009,05,25,07,37,12.50
2009,05,25,07,38,12.60
2009,05,25,07,39,12.70
2009,05,25,07,40,12.80
2009,05,25,07,41,12.80
2009,05,25,07,42,12.90
2009,05,25,07,43,12.90
2009,05,25,07,44,13.00
2009,05,25,07,45,13.10
2009,05,25,07,46,13.20
2009,05,25,07,47,13.30
2009,05,25,07,48,13.40
2009,05,25,07,49,13.50
2009,05,25,07,50,13.60
2009,05,25,07,51,13.70
2009,05,25,07,52,13.70
2009,05,25,07,53,13.70
2009,05,25,07,54,13.70
2009,05,25,07,55,13.70
2009,05,25,07,56,13.80
2009,05,25,07,57,13.80
2009,05,25,07,58,13.80
2009,05,25,07,59,13.80
2009,05,25,08,00,13.80
2009,05,25,08,01,13.80
2009,05,25,08,02,13.90
2009,05,25,08,03,13.90
2009,05,25,08,04,13.80
2009,05,25,08,05,13.70
2009,05,25,08,06,13.70
2009,05,25,08,07,13.70
2009,05,25,08,08,13.70
2009,05,25,08,09,13.70
2009,05,25,08,10,13.70
2009,05,25,08,11,13.70
2009,05,25,08,12,13.70
2009,05,25,08,13,13.70
2009,05,25,08,14,13.70
2009,05,25,08,15,13.70
2009,05,25,08,16,13.70
2009,05,25,08,17,13.70
2009,05,25,08,18,13.70
2009,05,25,08,19,13.70
2009,05,25,08,20,13.70
2009,05,25,08,21,13.70
2009,05,25,08,22,13.80
2009,05,25,08,23,13.80
2009,05,25,08,24,13.90
2009,05,25,08,25,13.90
2009,05,25,08,26,13.80
2009,05,25,08,27,13.80
2009,05,25,08,28,13.80
2009,05,25,08,29,13.90
2009,05,25,08,30,13.90
2009,05,25,08,31,14.00
2009,05,25,08,32,14.00
2009,05,25,08,33,14.00
2009,05,25,08,34,14.10
2009,05,25,08,35,14.10
2009,05,25,08,36,14.10
2009,05,25,08,37,14.10
2009,05,25,08,38,14.20
2009,05,25,08,39,14.20
2009,05,25,08,40,14.30
2009,05,25,08,41,14.40
2009,05,25,08,42,14.40
2009,05,25,08,43,14.50
2009,05,25,08,44,14.50
2009,05,25,08,45,14.50
2009,05,25,08,46,14.50
2009,05,25,08,47,14.40
2009,05,25,08,48,14.40
2009,05,25,08,49,14.40
2009,05,25,08,50,14.40
2009,05,25,08,51,14.40
2009,05,25,08,52,14.50
2009,05,25,08,53,14.40
2009,05,25,08,54,14.30
2009,05,25,08,55,14.20
2009,05,25,08,56,14.10
2009,05,25,08,57,14.20
2009,05,25,08,58,14.20
2009,05,25,08,59,14.30
2009,05,25,09,00,14.40
2009,05,25,09,01,14.40
2009,05,25,09,02,14.40
2009,05,25,09,03,14.30
2009,05,25,09,04,14.20
2009,05,25,09,05,14.10
2009,05,25,09,06,14.00
2009,05,25,09,07,13.90
2009,05,25,09,08,13.90
2009,05,25,09,09,14.00
2009,05,25,09,10,14.10
2009,05,25,09,11,14.20
2009,05,25,09,12,14.30
2009,05,25,09,13,14.30
2009,05,25,09,14,14.30
2009,05,25,09,15,14.30
2009,05,25,09,16,14.30
2009,05,25,09,17,14.30
2009,05,25,09,18,14.30
2009,05,25,09,19,14.30
2009,05,25,09,20,14.30
2009,05,25,09,21,14.40
2009,05,25,09,22,14.40
2009,05,25,09,23,14.40
2009,05,25,09,24,14.30
2009,05,25,09,25,14.30
2009,05,25,09,26,14.40
2009,05,25,09,27,14.30
2009,05,25,09,28,14.30
2009,05,25,09,29,14.30
2009,05,25,09,30,14.20
2009,05,25,09,31,14.20
2009,05,25,09,32,14.10
2009,05,25,09,33,14.10
2009,05,25,09,34,14.20
2009,05,25,09,35,14.30
2009,05,25,09,36,14.40
2009,05,25,09,37,14.60
2009,05,25,09,38,14.70
2009,05,25,09,39,14.80
2009,05,25,09,40,15.00
2009,05,25,09,41,15.00
2009,05,25,09,42,15.00
2009,05,25,09,43,15.00
2009,05,25,09,44,15.00
2009,05,25,09,45,15.00
2009,05,25,09,46,15.00
2009,05,25,09,47,15.00
2009,05,25,09,48,14.90
2009,05,25,09,49,14.70
2009,05,25,09,50,14.60
2009,05,25,09,51,14.50
2009,05,25,09,52,14.50
2009,05,25,09,53,14.50
2009,05,25,09,54,14.60
2009,05,25,09,55,14.60
2009,05,25,09,56,14.70
2009,05,25,09,57,14.80
2009,05,25,09,58,14.80
2009,05,25,09,59,14.90
2009,05,25,10,00,15.00
2009,05,25,10,01,15.00
2009,05,25,10,02,15.20
2009,05,25,10,03,15.40
2009,05,25,10,04,15.50
2009,05,25,10,05,15.60
2009,05,25,10,06,15.60
2009,05,25,10,07,15.50
2009,05,25,10,08,15.50
2009,05,25,10,09,15.60
2009,05,25,10,10,15.80
2009,05,25,10,11,15.90
2009,05,25,10,12,16.00
2009,05,25,10,13,16.10
2009,05,25,10,14,16.20
2009,05,25,10,15,16.30
2009,05,25,10,16,16.40
2009,05,25,10,17,16.30
2009,05,25,10,18,16.30
2009,05,25,10,19,16.20
2009,05,25,10,20,16.10
2009,05,25,10,21,16.00
2009,05,25,10,22,16.00
2009,05,25,10,23,15.90
2009,05,25,10,24,15.90
2009,05,25,10,25,15.90
2009,05,25,10,26,16.00
2009,05,25,10,27,16.10
2009,05,25,10,28,16.20
2009,05,25,10,29,16.30
2009,05,25,10,30,16.30
2009,05,25,10,31,16.30
2009,05,25,10,32,16.30
2009,05,25,10,33,16.40
2009,05,25,10,34,16.50
2009,05,25,10,35,16.60
2009,05,25,10,36,16.70
2009,05,25,10,37,16.70
2009,05,25,10,38,16.80
2009,05,25,10,39,16.70
2009,05,25,10,40,16.60
2009,05,25,10,41,16.50
2009,05,25,10,42,16.40
2009,05,25,10,43,16.40
2009,05,25,10,44,16.40
2009,05,25,10,45,16.40
2009,05,25,10,46,16.40
2009,05,25,10,47,16.50
2009,05,25,10,48,16.60
2009,05,25,10,49,16.60
2009,05,25,10,50,16.70
2009,05,25,10,51,16.80
2009,05,25,10,52,16.80
2009,05,25,10,53,16.80
2009,05,25,10,54,16.70
2009,05,25,10,55,16.70
2009,05,25,10,56,16.70
2009,05,25,10,57,16.80
2009,05,25,10,58,16.80
2009,05,25,10,59,16.90
2009,05,25,11,00,17.00
2009,05,25,11,01,17.00
2009,05,25,11,02,16.90
2009,05,25,11,03,16.90
2009,05,25,11,04,17.00
2009,05,25,11,05,17.00
2009,05,25,11,06,16.90
2009,05,25,11,07,16.90
2009,05,25,11,08,16.90
2009,05,25,11,09,16.90
2009,05,25,11,10,17.00
2009,05,25,11,11,17.10
2009,05,25,11,12,17.20
2009,05,25,11,13,17.20
2009,05,25,11,14,17.20
2009,05,25,11,15,17.10
2009,05,25,11,16,17.00
2009,05,25,11,17,17.00
2009,05,25,11,18,17.10
2009,05,25,11,19,17.00
2009,05,25,11,20,16.80
2009,05,25,11,21,16.70
2009,05,25,11,22,16.60
2009,05,25,11,23,16.70
2009,05,25,11,24,16.90
2009,05,25,11,25,16.90
2009,05,25,11,26,16.90
2009,05,25,11,27,16.80
2009,05,25,11,28,16.70
2009,05,25,11,29,16.60
2009,05,25,11,30,16.50
2009,05,25,11,31,16.50
2009,05,25,11,32,16.30
2009,05,25,11,33,16.30
2009,05,25,11,34,16.30
2009,05,25,11,35,16.40
2009,05,25,11,36,16.40
2009,05,25,11,37,16.30
2009,05,25,11,38,16.40
2009,05,25,11,39,16.50
2009,05,25,11,40,16.60
2009,05,25,11,41,16.70
2009,05,25,11,42,16.70
2009,05,25,11,43,16.80
2009,05,25,11,44,16.90
2009,05,25,11,45,16.90
2009,05,25,11,46,16.80
2009,05,25,11,47,16.80
2009,05,25,11,48,16.90
2009,05,25,11,49,16.80
2009,05,25,11,50,16.80
2009,05,25,11,51,16.70
2009,05,25,11,52,16.60
2009,05,25,11,53,16.60
2009,05,25,11,54,16.60
2009,05,25,11,55,16.60
2009,05,25,11,56,16.60
2009,05,25,11,57,16.90
2009,05,25,11,58,17.10
2009,05,25,11,59,17.20
2009,05,25,12,00,17.30
2009,05,25,12,01,17.40
2009,05,25,12,02,17.50
2009,05,25,12,03,17.60
2009,05,25,12,04,17.60
2009,05,25,12,05,17.50
2009,05,25,12,06,17.50
2009,05,25,12,07,17.40
2009,05,25,12,08,17.50
2009,05,25,12,09,17.40
2009,05,25,12,10,17.20
2009,05,25,12,11,17.20
2009,05,25,12,12,17.10
2009,05,25,12,13,17.10
2009,05,25,12,14,17.10
2009,05,25,12,15,17.10
2009,05,25,12,16,17.10
2009,05,25,12,17,17.10
2009,05,25,12,18,17.00
2009,05,25,12,19,17.10
2009,05,25,12,20,17.00
2009,05,25,12,21,16.90
2009,05,25,12,22,16.90
2009,05,25,12,23,17.10
2009,05,25,12,24,17.30
2009,05,25,12,25,17.50
2009,05,25,12,26,17.70
2009,05,25,12,27,17.80
2009,05,25,12,28,17.70
2009,05,25,12,29,17.70
2009,05,25,12,30,17.70
2009,05,25,12,31,17.50
2009,05,25,12,32,17.20
2009,05,25,12,33,16.90
2009,05,25,12,34,16.80
2009,05,25,12,35,16.80
2009,05,25,12,36,16.80
2009,05,25,12,37,16.90
2009,05,25,12,38,16.90
2009,05,25,12,39,16.90
2009,05,25,12,40,17.10
2009,05,25,12,41,17.30
2009,05,25,12,42,17.40
2009,05,25,12,43,17.40
2009,05,25,12,44,17.40
2009,05,25,12,45,17.40
2009,05,25,12,46,17.50
2009,05,25,12,47,17.60
2009,05,25,12,48,17.60
2009,05,25,12,49,17.60
2009,05,25,12,50,17.60
2009,05,25,12,51,17.60
2009,05,25,12,52,17.70
2009,05,25,12,53,17.70
2009,05,25,12,54,17.80
2009,05,25,12,55,17.70
2009,05,25,12,56,17.60
2009,05,25,12,57,17.40
2009,05,25,12,58,17.30
2009,05,25,12,59,17.30
2009,05,25,13,00,17.30
2009,05,25,13,01,17.30
2009,05,25,13,02,17.30
2009,05,25,13,03,17.40
2009,05,25,13,04,17.40
2009,05,25,13,05,17.40
2009,05,25,13,06,17.50
2009,05,25,13,07,17.50
2009,05,25,13,08,17.60
2009,05,25,13,09,17.60
2009,05,25,13,10,17.50
2009,05,25,13,11,17.50
2009,05,25,13,12,17.50
2009,05,25,13,13,17.60
2009,05,25,13,14,17.70
2009,05,25,13,15,17.70
2009,05,25,13,16,17.80
2009,05,25,13,17,17.60
2009,05,25,13,18,17.60
2009,05,25,13,19,17.60
2009,05,25,13,20,17.70
2009,05,25,13,21,17.70
2009,05,25,13,22,17.80
2009,05,25,13,23,17.80
2009,05,25,13,24,17.80
2009,05,25,13,25,17.80
2009,05,25,13,26,17.80
2009,05,25,13,27,17.80
2009,05,25,13,28,17.80
2009,05,25,13,29,17.80
2009,05,25,13,30,17.80
2009,05,25,13,31,17.80
2009,05,25,13,32,17.90
2009,05,25,13,33,17.80
2009,05,25,13,34,17.60
2009,05,25,13,35,17.40
2009,05,25,13,36,17.40
2009,05,25,13,37,17.50
2009,05,25,13,38,17.50
2009,05,25,13,39,17.40
2009,05,25,13,40,17.40
2009,05,25,13,41,17.30
2009,05,25,13,42,17.30
2009,05,25,13,43,17.30
2009,05,25,13,44,17.30
2009,05,25,13,45,17.30
2009,05,25,13,46,17.30
2009,05,25,13,47,17.30
2009,05,25,13,48,17.20
2009,05,25,13,49,17.20
2009,05,25,13,50,17.20
2009,05,25,13,51,17.20
2009,05,25,13,52,17.30
2009,05,25,13,53,17.30
2009,05,25,13,54,17.50
2009,05,25,13,55,17.70
2009,05,25,13,56,17.80
2009,05,25,13,57,17.80
2009,05,25,13,58,17.80
2009,05,25,13,59,17.80
2009,05,25,14,00,17.80
2009,05,25,14,01,17.70
2009,05,25,14,02,17.60
2009,05,25,14,03,17.50
2009,05,25,14,04,17.40
2009,05,25,14,05,17.50
2009,05,25,14,06,17.60
2009,05,25,14,07,17.60
2009,05,25,14,08,17.60
2009,05,25,14,09,17.60
2009,05,25,14,10,17.60
2009,05,25,14,11,17.60
2009,05,25,14,12,17.60
2009,05,25,14,13,17.60
2009,05,25,14,14,17.80
2009,05,25,14,15,17.80
2009,05,25,14,16,17.80
2009,05,25,14,17,17.90
2009,05,25,14,18,17.90
2009,05,25,14,19,17.90
2009,05,25,14,20,17.80
2009,05,25,14,21,17.70
2009,05,25,14,22,17.70
2009,05,25,14,23,17.70
2009,05,25,14,24,17.70
2009,05,25,14,25,17.70
2009,05,25,14,26,17.80
2009,05,25,14,27,17.80
2009,05,25,14,28,17.70
2009,05,25,14,29,17.70
2009,05,25,14,30,17.60
2009,05,25,14,31,17.60
2009,05,25,14,32,17.70
2009,05,25,14,33,17.70
2009,05,25,14,34,17.80
2009,05,25,14,35,17.90
2009,05,25,14,36,17.90
2009,05,25,14,37,17.90
2009,05,25,14,38,18.00
2009,05,25,14,39,18.00
2009,05,25,14,40,18.10
2009,05,25,14,41,18.10
2009,05,25,14,42,18.10
2009,05,25,14,43,18.10
2009,05,25,14,44,18.10
2009,05,25,14,45,18.10
2009,05,25,14,46,18.10
2009,05,25,14,47,18.00
2009,05,25,14,48,18.00
2009,05,25,14,49,18.00
2009,05,25,14,50,17.90
2009,05,25,14,51,17.70
2009,05,25,14,52,17.70
2009,05,25,14,53,17.70
2009,05,25,14,54,17.80
2009,05,25,14,55,17.80
2009,05,25,14,56,17.80
2009,05,25,14,57,17.80
2009,05,25,14,58,17.90
2009,05,25,14,59,17.90
2009,05,25,15,00,18.00
2009,05,25,15,01,18.10
2009,05,25,15,02,18.00
2009,05,25,15,03,18.00
2009,05,25,15,04,18.10
2009,05,25,15,05,18.20
2009,05,25,15,06,18.30
2009,05,25,15,07,18.40
2009,05,25,15,08,18.50
2009,05,25,15,09,18.40
2009,05,25,15,10,18.40
2009,05,25,15,11,18.20
2009,05,25,15,12,18.00
2009,05,25,15,13,17.90
2009,05,25,15,14,18.00
2009,05,25,15,15,18.00
2009,05,25,15,16,18.10
2009,05,25,15,17,18.10
2009,05,25,15,18,18.20
2009,05,25,15,19,18.20
2009,05,25,15,20,18.20
2009,05,25,15,21,18.20
2009,05,25,15,22,18.20
2009,05,25,15,23,18.20
2009,05,25,15,24,18.30
2009,05,25,15,25,18.30
2009,05,25,15,26,18.30
2009,05,25,15,27,18.30
2009,05,25,15,28,18.40
2009,05,25,15,29,18.30
2009,05,25,15,30,18.30
2009,05,25,15,31,18.30
2009,05,25,15,32,18.40
2009,05,25,15,33,18.50
2009,05,25,15,34,18.50
2009,05,25,15,35,18.40
2009,05,25,15,36,18.40
2009,05,25,15,37,18.40
2009,05,25,15,38,18.30
2009,05,25,15,39,18.20
2009,05,25,15,40,18.20
2009,05,25,15,41,18.30
2009,05,25,15,42,18.30
2009,05,25,15,43,18.30
2009,05,25,15,44,18.40
2009,05,25,15,45,18.50
2009,05,25,15,46,18.60
2009,05,25,15,47,18.70
2009,05,25,15,48,18.80
2009,05,25,15,49,18.80
2009,05,25,15,50,18.80
2009,05,25,15,51,18.80
2009,05,25,15,52,18.80
2009,05,25,15,53,18.70
2009,05,25,15,54,18.70
2009,05,25,15,55,18.70
2009,05,25,15,56,18.80
2009,05,25,15,57,18.80
2009,05,25,15,58,18.80
2009,05,25,15,59,18.80
2009,05,25,16,00,18.60
2009,05,25,16,01,18.50
2009,05,25,16,02,18.50
2009,05,25,16,03,18.40
2009,05,25,16,04,18.40
2009,05,25,16,05,18.30
2009,05,25,16,06,18.40
2009,05,25,16,07,18.40
2009,05,25,16,08,18.40
2009,05,25,16,09,18.40
2009,05,25,16,10,18.50
2009,05,25,16,11,18.60
2009,05,25,16,12,18.70
2009,05,25,16,13,18.80
2009,05,25,16,14,18.80
2009,05,25,16,15,18.90
2009,05,25,16,16,19.00
2009,05,25,16,17,19.10
2009,05,25,16,18,19.10
2009,05,25,16,19,19.10
2009,05,25,16,20,19.20
2009,05,25,16,21,19.10
2009,05,25,16,22,18.90
2009,05,25,16,23,18.70
2009,05,25,16,24,18.60
2009,05,25,16,25,18.50
2009,05,25,16,26,18.40
2009,05,25,16,27,18.40
2009,05,25,16,28,18.30
2009,05,25,16,29,18.30
2009,05,25,16,30,18.30
2009,05,25,16,31,18.30
2009,05,25,16,32,18.30
2009,05,25,16,33,18.40
2009,05,25,16,34,18.30
2009,05,25,16,35,18.30
2009,05,25,16,36,18.30
2009,05,25,16,37,18.30
2009,05,25,16,38,18.30
2009,05,25,16,39,18.30
2009,05,25,16,40,18.30
2009,05,25,16,41,18.30
2009,05,25,16,42,18.30
2009,05,25,16,43,18.20
2009,05,25,16,44,18.30
2009,05,25,16,45,18.30
2009,05,25,16,46,18.30
2009,05,25,16,47,18.30
2009,05,25,16,48,18.30
2009,05,25,16,49,18.20
2009,05,25,16,50,18.20
2009,05,25,16,51,18.20
2009,05,25,16,52,18.10
2009,05,25,16,53,17.90
2009,05,25,16,54,17.80
2009,05,25,16,55,17.80
2009,05,25,16,56,17.90
2009,05,25,16,57,17.90
2009,05,25,16,58,18.00
2009,05,25,16,59,18.00
2009,05,25,17,00,18.20
2009,05,25,17,01,18.20
2009,05,25,17,02,18.20
2009,05,25,17,03,18.20
2009,05,25,17,04,18.20
2009,05,25,17,05,18.20
2009,05,25,17,06,18.30
2009,05,25,17,07,18.20
2009,05,25,17,08,18.10
2009,05,25,17,09,18.10
2009,05,25,17,10,18.00
2009,05,25,17,11,17.90
2009,05,25,17,12,17.90
2009,05,25,17,13,17.90
2009,05,25,17,14,17.80
2009,05,25,17,15,17.90
2009,05,25,17,16,17.90
2009,05,25,17,17,17.90
2009,05,25,17,18,17.90
2009,05,25,17,19,17.80
2009,05,25,17,20,17.80
2009,05,25,17,21,17.70
2009,05,25,17,22,17.70
2009,05,25,17,23,17.70
2009,05,25,17,24,17.70
2009,05,25,17,25,17.70
2009,05,25,17,26,17.70
2009,05,25,17,27,17.70
2009,05,25,17,28,17.70
2009,05,25,17,29,17.80
2009,05,25,17,30,17.90